DW8201 Weather Reports


Display with metric or nautical units.
time (UTC)temp
F
wind
direction
speed
MPH
gust
MPH
rain 1hr
in
rain 24hr
in
rain mn
in
humidity
%
barometer
mb
20260831144840 69 239 4.0 14.0 0.00 0.11 0.11 70 1011.2
20260831144333 69 222 4.0 13.0 0.00 0.11 0.11 71 1011.1
20260831143822 69 326 4.0 13.0 0.00 0.11 0.11 70 1010.9
20260831143617 69 184 4.0 13.0 0.00 0.11 0.11 71 1010.9
20260831142805 69 200 5.0 12.0 0.00 0.11 0.11 73 1010.8
20260831142258 69 221 5.0 12.0 0.00 0.11 0.11 73 1010.7
20260831141747 68 54 4.0 10.0 0.00 0.11 0.11 74 1010.6
20260831141637 68 266 4.0 11.0 0.00 0.11 0.11 74 1010.5
20260831140826 67 277 5.0 21.0 0.00 0.11 0.11 74 1010.5
20260831140318 67 203 5.0 21.0 0.00 0.11 0.11 73 1010.6
20260831135808 68 168 5.0 14.0 0.00 0.11 0.11 74 1010.6
20260831135552 67 210 5.0 15.0 0.00 0.11 0.11 78 1010.6
20260831135352 67 251 5.0 14.0 0.00 0.11 0.11 75 1010.7
20260831134245 66 345 5.0 15.0 0.00 0.11 0.11 79 1010.5
20260831133740 65 235 5.0 12.0 0.00 0.11 0.11 80 1010.6
20260831133328 64 226 6.0 17.0 0.00 0.11 0.11 78 1010.6
20260831132819 65 289 5.0 17.0 0.00 0.11 0.11 80 1010.5
20260831132310 65 174 6.0 17.0 0.00 0.11 0.11 81 1010.3
20260831131803 65 227 7.0 17.0 0.00 0.11 0.11 80 1010.2
20260831131251 66 223 7.0 16.0 0.00 0.11 0.11 80 1010.1
20260831130744 66 218 7.0 16.0 0.00 0.11 0.11 79 1009.9
20260831130235 66 252 7.0 15.0 0.00 0.11 0.11 78 1009.9
20260831125732 67 244 8.0 20.0 0.00 0.11 0.11 77 1009.9
20260831125322 67 197 8.0 20.0 0.00 0.11 0.11 76 1009.7
20260831124815 68 215 9.0 20.0 0.00 0.11 0.11 75 1009.9
20260831124308 68 210 9.0 20.0 0.00 0.11 0.11 74 1009.8
20260831123758 68 203 8.0 16.0 0.00 0.11 0.11 77 1009.7
20260831123446 68 212 8.0 17.0 0.00 0.11 0.11 78 1009.8
20260831123247 68 176 7.0 16.0 0.00 0.11 0.11 77 1009.8
20260831122539 67 228 9.0 17.0 0.00 0.11 0.11 78 1009.8
20260831121728 67 122 8.0 21.0 0.00 0.11 0.11 79 1009.8
20260831121619 67 254 8.0 21.0 0.00 0.11 0.11 80 1009.7
20260831121111 66 250 8.0 18.0 0.00 0.11 0.11 82 1009.6
20260831120301 66 243 7.0 18.0 0.00 0.11 0.11 82 1009.6
20260831115751 65 172 6.0 13.0 0.02 0.11 0.11 83 1009.7
20260831115242 65 92 6.0 13.0 0.05 0.11 0.11 84 1009.7
20260831114735 65 258 6.0 17.0 0.05 0.11 0.11 85 1009.6
20260831114226 65 238 6.0 17.0 0.05 0.11 0.11 84 1009.6
20260831113913 65 237 6.0 22.0 0.05 0.11 0.11 86 1009.6
20260831113310 65 243 7.0 22.0 0.05 0.11 0.11 85 1009.5
20260831112900 64 200 6.0 14.0 0.05 0.11 0.11 87 1009.5
20260831112400 64 234 4.0 14.0 0.05 0.11 0.11 89 1009.6
20260831111842 64 228 3.0 12.0 0.05 0.11 0.11 90 1009.5
20260831111334 63 193 4.0 10.0 0.05 0.11 0.11 89 1009.5
20260831110827 63 158 5.0 11.0 0.05 0.11 0.11 89 1009.5
20260831110630 63 226 7.0 16.0 0.05 0.11 0.11 87 1009.6
20260831105903 64 156 8.0 19.0 0.03 0.09 0.10 84 1009.6
20260831105356 65 265 8.0 19.0 0.00 0.06 0.07 80 1009.5
20260831104851 67 181 7.0 14.0 0.00 0.06 0.06 77 1009.3
20260831104343 67 225 8.0 23.0 0.00 0.06 0.06 74 1009.1
20260831103836 67 184 9.0 23.0 0.00 0.06 0.06 75 1009.1
20260831103530 67 213 9.0 20.0 0.00 0.06 0.06 74 1009.1
20260831103426 67 196 9.0 19.0 0.00 0.06 0.06 75 1009.1
20260831102311 67 195 8.0 20.0 0.00 0.06 0.06 73 1008.9
20260831101801 68 264 7.0 17.0 0.00 0.06 0.06 72 1009.0
20260831101348 67 218 8.0 18.0 0.00 0.06 0.06 74 1009.0
20260831100845 67 214 7.0 18.0 0.00 0.06 0.06 73 1009.0
20260831100336 67 195 6.0 12.0 0.00 0.06 0.06 75 1009.0
20260831095830 67 174 6.0 22.0 0.00 0.06 0.06 74 1008.9
20260831095632 67 162 7.0 22.0 0.00 0.06 0.06 74 1009.0
20260831094810 67 206 7.0 18.0 0.00 0.06 0.06 74 1009.0
20260831094303 67 206 7.0 19.0 0.00 0.06 0.06 74 1008.9
20260831094104 67 208 9.0 25.0 0.00 0.06 0.06 73 1009.0
20260831093342 67 190 11.0 25.0 0.00 0.06 0.06 74 1008.9
20260831092835 67 229 11.0 24.0 0.00 0.06 0.06 74 1009.1
20260831092328 67 226 9.0 24.0 0.00 0.06 0.06 74 1009.0
20260831091824 67 187 10.0 24.0 0.00 0.06 0.06 75 1008.9
20260831091317 67 201 11.0 24.0 0.00 0.06 0.06 76 1009.0
20260831090810 66 210 10.0 23.0 0.00 0.06 0.06 75 1008.9
20260831090301 66 268 9.0 20.0 0.00 0.06 0.06 76 1008.9
20260831085952 66 179 9.0 22.0 0.00 0.06 0.06 77 1008.8
20260831084827 66 160 8.0 19.0 0.00 0.06 0.06 77 1008.7
20260831084324 66 186 8.0 19.0 0.00 0.06 0.06 77 1008.6
20260831083813 66 175 8.0 15.0 0.00 0.06 0.06 79 1008.5
20260831083309 65 208 10.0 22.0 0.00 0.06 0.06 78 1008.6
20260831082759 65 215 9.0 22.0 0.00 0.06 0.06 78 1008.5
20260831082252 65 202 8.0 18.0 0.00 0.06 0.06 79 1008.6
20260831082053 65 252 9.0 15.0 0.00 0.06 0.06 79 1008.4
20260831081331 65 212 9.0 17.0 0.00 0.06 0.06 80 1008.4
20260831080824 64 189 7.0 17.0 0.00 0.06 0.06 81 1008.5
20260831080322 64 196 7.0 15.0 0.00 0.06 0.06 81 1008.5
20260831080316 64 195 7.0 15.0 0.00 0.06 0.06 81 1008.5
20260831075306 64 183 8.0 15.0 0.00 0.06 0.06 81 1008.6
20260831074757 64 209 8.0 21.0 0.00 0.06 0.06 80 1008.6
20260831074557 64 193 8.0 21.0 0.00 0.06 0.06 81 1008.6
20260831074050 64 214 8.0 16.0 0.00 0.06 0.06 81 1008.5
20260831073326 64 188 8.0 14.0 0.00 0.06 0.06 81 1008.6
20260831072819 64 185 6.0 13.0 0.00 0.06 0.06 82 1008.7
20260831072311 64 176 6.0 16.0 0.00 0.06 0.06 82 1008.5
20260831071811 64 167 6.0 16.0 0.00 0.06 0.06 82 1008.6
20260831071805 64 164 7.0 16.0 0.00 0.06 0.06 82 1008.7
20260831071500 64 299 6.0 15.0 0.00 0.06 0.06 82 1008.6
20260831070957 64 175 8.0 20.0 0.00 0.06 0.06 84 1008.7
20260831070953 64 187 6.0 15.0 0.00 0.06 0.06 83 1008.6
20260831065328 64 195 8.0 20.0 0.00 0.06 0.06 84 1008.7
20260831064819 64 190 6.0 21.0 0.00 0.06 0.06 85 1008.7
20260831064309 63 217 6.0 21.0 0.00 0.06 0.06 86 1008.7
20260831063759 63 196 7.0 14.0 0.00 0.06 0.06 87 1008.7
20260831063248 63 189 6.0 14.0 0.00 0.06 0.06 87 1008.6
20260831062738 62 170 6.0 16.0 0.00 0.06 0.06 87 1008.6
20260831062229 62 196 6.0 16.0 0.00 0.06 0.06 87 1008.5
20260831061729 62 143 7.0 15.0 0.00 0.06 0.06 88 1008.5
20260831061724 62 231 6.0 12.0 0.00 0.06 0.06 87 1008.5
20260831061314 62 182 7.0 15.0 0.00 0.06 0.06 88 1008.4
20260831060215 61 189 7.0 13.0 0.00 0.06 0.06 89 1008.5
20260831055748 61 173 6.0 11.0 0.00 0.06 0.06 89 1008.5
20260831055240 61 169 6.0 10.0 0.00 0.06 0.06 89 1008.5
20260831054734 61 212 5.0 11.0 0.00 0.06 0.06 89 1008.5
20260831054224 61 158 5.0 11.0 0.00 0.06 0.06 89 1008.5
20260831053715 60 199 5.0 10.0 0.00 0.06 0.06 89 1008.4
20260831053207 60 170 4.0 10.0 0.00 0.06 0.06 89 1008.5
20260831052759 60 168 5.0 10.0 0.00 0.06 0.06 89 1008.5
20260831052248 60 186 5.0 9.0 0.00 0.06 0.06 89 1008.5
20260831051738 60 183 4.0 8.0 0.00 0.06 0.06 89 1008.5
20260831051230 60 170 4.0 9.0 0.00 0.06 0.06 89 1008.5
20260831050722 60 187 4.0 9.0 0.00 0.06 0.06 89 1008.5
20260831050213 60 199 4.0 9.0 0.00 0.06 0.06 90 1008.4
20260831045711 60 188 3.0 9.0 0.00 0.06 0.06 90 1008.3
20260831045706 60 174 4.0 9.0 0.00 0.06 0.06 90 1008.4
20260831044654 60 195 3.0 7.0 0.00 0.06 0.06 90 1008.3
20260831044649 60 159 3.0 8.0 0.00 0.06 0.06 90 1008.3
20260831044439 60 199 4.0 8.0 0.00 0.06 0.06 90 1008.3
20260831043932 60 192 4.0 8.0 0.00 0.06 0.06 90 1008.3
20260831042709 60 209 4.0 8.0 0.00 0.06 0.06 90 1008.3
20260831042201 60 211 4.0 9.0 0.00 0.06 0.06 90 1008.2
20260831041652 60 193 5.0 9.0 0.00 0.06 0.06 90 1008.3
20260831041144 60 188 5.0 10.0 0.00 0.06 0.06 90 1008.3
20260831040638 60 189 4.0 9.0 0.00 0.06 0.06 90 1008.3
20260831040634 60 195 5.0 10.0 0.00 0.06 0.06 90 1008.3
20260831035716 60 206 4.0 8.0 0.00 0.06 0.06 90 1008.4
20260831035213 60 242 4.0 10.0 0.00 0.06 0.06 90 1008.5
20260831035207 60 199 4.0 10.0 0.00 0.06 0.06 90 1008.4
20260831034149 60 181 4.0 10.0 0.00 0.06 0.06 90 1008.5
20260831033640 60 169 5.0 10.0 0.00 0.06 0.06 90 1008.5
20260831033134 60 206 5.0 10.0 0.00 0.06 0.06 91 1008.5
20260831032630 60 176 5.0 10.0 0.00 0.06 0.06 91 1008.4
20260831032121 60 179 4.0 10.0 0.00 0.06 0.06 91 1008.5
20260831031615 60 171 4.0 10.0 0.00 0.06 0.06 91 1008.5
20260831031213 60 203 4.0 7.0 0.00 0.06 0.06 91 1008.5
20260831031208 60 167 4.0 7.0 0.00 0.06 0.06 91 1008.5
20260831030149 60 214 4.0 8.0 0.00 0.06 0.06 91 1008.5
20260831025642 60 210 3.0 8.0 0.00 0.06 0.06 91 1008.4
20260831025138 60 206 3.0 6.0 0.00 0.06 0.06 91 1008.5
20260831025132 60 182 3.0 6.0 0.00 0.06 0.06 91 1008.5
20260831024116 60 202 3.0 6.0 0.00 0.06 0.06 91 1008.5
20260831023609 60 181 2.0 5.0 0.00 0.06 0.06 91 1008.5
20260831023101 60 181 2.0 4.0 0.00 0.06 0.06 91 1008.5
20260831022556 60 183 2.0 6.0 0.00 0.06 0.06 90 1008.4
20260831022154 61 178 2.0 5.0 0.00 0.06 0.06 91 1008.4
20260831022148 60 191 2.0 6.0 0.00 0.06 0.06 90 1008.4
20260831021842 61 207 3.0 6.0 0.00 0.06 0.06 90 1008.3
20260831020620 61 198 3.0 6.0 0.00 0.06 0.06 90 1008.3
20260831020125 61 192 3.0 5.0 0.00 0.06 0.06 90 1008.3
20260831015604 61 203 2.0 5.0 0.00 0.06 0.06 90 1008.3
20260831015101 62 199 3.0 7.0 0.00 0.06 0.06 90 1008.4
20260831015056 61 189 2.0 5.0 0.00 0.06 0.06 90 1008.3
20260831014550 62 165 3.0 5.0 0.00 0.06 0.06 90 1008.3
20260831014243 62 191 4.0 11.0 0.00 0.06 0.06 90 1008.4
20260831013125 62 193 5.0 11.0 0.00 0.06 0.06 90 1008.5
20260831012622 62 214 4.0 10.0 0.00 0.06 0.06 91 1008.5
20260831012618 62 237 5.0 10.0 0.00 0.06 0.06 91 1008.5
20260831011603 62 185 3.0 11.0 0.00 0.06 0.06 91 1008.6
20260831011056 62 156 2.0 11.0 0.00 0.06 0.06 92 1008.5
20260831010526 62 203 1.0 4.0 0.01 0.06 0.06 91 1008.4
20260831010325 62 185 0.0 2.0 0.01 0.06 0.06 91 1008.4
20260831005536 62 160 1.0 3.0 0.02 0.06 0.06 91 1008.4
20260831005029 62 160 1.0 3.0 0.02 0.06 0.06 91 1008.3
20260831004524 62 176 1.0 3.0 0.06 0.06 0.06 91 1008.3
20260831004119 62 151 1.0 5.0 0.06 0.06 0.06 91 1008.4
20260831004113 62 171 1.0 5.0 0.06 0.06 0.06 91 1008.4
20260831003056 62 172 1.0 5.0 0.06 0.06 0.06 91 1008.4
20260831002552 62 137 2.0 5.0 0.06 0.06 0.06 91 1008.4
20260831002040 62 143 2.0 3.0 0.06 0.06 0.06 90 1008.5
20260831001533 63 168 2.0 5.0 0.06 0.06 0.06 90 1008.5
20260831001024 63 190 2.0 5.0 0.06 0.06 0.06 90 1008.5
20260831000517 63 176 3.0 6.0 0.06 0.06 0.06 89 1008.6
20260831000012 63 194 4.0 8.0 0.06 0.06 0.06 89 1008.8
20260830235603 64 205 1.0 4.0 0.00 0.00 0.00 87 1009.1
20260830235557 64 181 2.0 9.0 0.04 0.04 0.05 87 1009.1
20260830235553 63 187 4.0 9.0 0.05 0.05 0.05 88 1008.9
20260830234032 64 189 2.0 4.0 0.00 0.00 0.00 86 1008.9
20260830233522 63 164 2.0 4.0 0.00 0.00 0.00 86 1008.8
20260830233011 64 151 1.0 4.0 0.00 0.00 0.00 86 1008.9
20260830232508 64 174 0.0 4.0 0.00 0.00 0.00 86 1008.9
20260830232504 64 190 0.0 4.0 0.00 0.00 0.00 85 1008.9
20260830231557 64 174 0.0 2.0 0.00 0.00 0.00 85 1008.9
20260830231053 64 174 0.0 2.0 0.00 0.00 0.00 85 1009.0
20260830230948 64 174 1.0 2.0 0.00 0.00 0.00 85 1008.9
20260830230247 64 152 0.0 3.0 0.00 0.00 0.00 85 1009.0
20260830230048 64 174 0.0 3.0 0.00 0.00 0.00 85 1008.9
20260830225026 64 170 0.0 3.0 0.00 0.00 0.00 84 1009.0
20260830224525 64 142 0.0 0.0 0.00 0.00 0.00 84 1009.0
20260830224520 64 170 0.0 3.0 0.00 0.00 0.00 84 1008.9
20260830223503 64 142 0.0 0.0 0.00 0.00 0.00 84 1008.9
20260830222958 64 192 1.0 3.0 0.00 0.00 0.00 84 1009.1
20260830222952 64 142 0.0 0.0 0.00 0.00 0.00 84 1009.0
20260830221946 64 162 1.0 3.0 0.00 0.00 0.00 84 1009.2
20260830221534 65 190 1.0 3.0 0.00 0.00 0.00 84 1009.2
20260830221530 65 170 1.0 3.0 0.00 0.00 0.00 84 1009.2
20260830221224 65 190 0.0 3.0 0.00 0.00 0.00 84 1009.3
20260830220720 65 154 0.0 0.0 0.00 0.00 0.00 83 1009.2
20260830215502 65 172 0.0 2.0 0.00 0.00 0.00 83 1009.2
20260830214954 65 182 0.0 2.0 0.00 0.00 0.00 83 1009.2
20260830214454 65 154 0.0 0.0 0.00 0.01 0.00 83 1009.3
20260830214448 65 154 0.0 0.0 0.00 0.00 0.00 83 1009.3
20260830214146 65 154 0.0 0.0 0.00 0.01 0.00 83 1009.3
20260830212935 65 154 0.0 0.0 0.00 0.01 0.00 82 1009.3
20260830212931 65 154 0.0 0.0 0.00 0.01 0.00 82 1009.3
20260830212024 65 154 0.0 0.0 0.00 0.01 0.00 82 1009.3
20260830211507 65 154 0.0 0.0 0.00 0.01 0.00 82 1009.4
20260830211006 65 154 0.0 0.0 0.00 0.01 0.00 82 1009.4
20260830211001 65 154 0.0 0.0 0.00 0.01 0.00 82 1009.4
20260830205945 65 154 0.0 0.0 0.00 0.01 0.00 82 1009.5
20260830205453 65 171 0.0 0.0 0.00 0.01 0.00 82 1009.5
20260830204936 66 155 0.0 0.0 0.00 0.01 0.00 82 1009.5
20260830204432 66 155 0.0 0.0 0.00 0.01 0.00 81 1009.6
20260830204428 66 155 0.0 0.0 0.00 0.01 0.00 81 1009.6
20260830203427 66 171 0.0 0.0 0.00 0.01 0.00 81 1009.7
20260830202912 66 171 0.0 0.0 0.00 0.01 0.00 81 1009.7
20260830202506 66 171 0.0 0.0 0.00 0.01 0.00 81 1009.6
20260830201949 66 171 0.0 0.0 0.00 0.01 0.00 81 1009.7
20260830201443 66 194 0.0 0.0 0.00 0.01 0.00 81 1009.7
20260830200937 66 203 0.0 0.0 0.00 0.01 0.00 81 1009.8
20260830200432 67 195 1.0 3.0 0.00 0.01 0.00 80 1009.8
20260830200427 67 195 0.0 3.0 0.00 0.01 0.00 80 1009.8
20260830200123 67 195 2.0 5.0 0.00 0.01 0.00 80 1009.9
20260830194908 67 206 3.0 5.0 0.00 0.01 0.00 80 1009.9
20260830194417 67 177 3.0 7.0 0.00 0.01 0.00 80 1009.9
20260830193902 67 220 3.0 7.0 0.00 0.01 0.00 79 1010.0
20260830193450 67 199 4.0 8.0 0.00 0.01 0.00 79 1010.1
20260830192946 67 194 3.0 8.0 0.00 0.01 0.00 79 1010.2
20260830192423 67 192 2.0 7.0 0.00 0.01 0.00 79 1010.2
20260830191928 67 187 1.0 5.0 0.00 0.01 0.00 78 1010.1
20260830191407 67 158 0.0 0.0 0.00 0.01 0.00 78 1010.1
20260830190857 67 151 0.0 0.0 0.00 0.01 0.00 77 1010.0
20260830190355 67 150 0.0 0.0 0.00 0.01 0.00 77 1010.0
20260830190125 67 150 0.0 0.0 0.00 0.01 0.00 77 1010.0
20260830185448 68 150 0.0 0.0 0.00 0.01 0.00 77 1010.0
20260830184938 68 150 0.0 0.0 0.00 0.01 0.00 76 1010.0
20260830184432 68 155 0.0 0.0 0.00 0.01 0.00 76 1009.9
20260830183919 68 180 0.0 0.0 0.00 0.01 0.00 76 1010.0
20260830183411 68 180 0.0 0.0 0.00 0.01 0.00 75 1009.9
20260830182908 68 180 0.0 0.0 0.00 0.01 0.00 75 1010.1
20260830182902 68 180 0.0 0.0 0.00 0.01 0.00 75 1010.1
20260830181847 69 185 0.0 0.0 0.00 0.01 0.00 74 1010.1
20260830181343 69 163 1.0 3.0 0.00 0.01 0.00 74 1010.1
20260830180836 69 203 1.0 4.0 0.00 0.01 0.00 74 1010.1
20260830180338 69 168 1.0 4.0 0.00 0.01 0.00 74 1010.1
20260830175930 69 191 1.0 3.0 0.00 0.01 0.00 73 1010.1
20260830175424 69 184 1.0 3.0 0.00 0.01 0.00 73 1010.1
20260830174906 70 184 2.0 4.0 0.00 0.01 0.00 72 1010.2
20260830174358 70 207 2.0 5.0 0.00 0.01 0.00 72 1010.3
20260830173854 70 203 3.0 6.0 0.00 0.01 0.00 72 1010.2
20260830173344 70 174 3.0 7.0 0.00 0.01 0.00 71 1010.2
20260830172836 70 213 4.0 8.0 0.00 0.01 0.00 71 1010.3
20260830172335 71 164 4.0 8.0 0.00 0.01 0.00 71 1010.3
20260830171928 71 187 5.0 8.0 0.00 0.01 0.00 70 1010.4
20260830171418 71 193 5.0 9.0 0.00 0.02 0.00 70 1010.3
20260830170910 71 211 5.0 10.0 0.00 0.02 0.00 70 1010.4
20260830170351 71 194 5.0 10.0 0.00 0.02 0.00 69 1010.4
20260830165845 71 219 3.0 7.0 0.00 0.02 0.00 69 1010.4
20260830165841 71 191 4.0 7.0 0.00 0.02 0.00 69 1010.4
20260830164826 71 257 3.0 6.0 0.00 0.02 0.00 70 1010.3
20260830164324 72 166 3.0 7.0 0.00 0.02 0.00 69 1010.4
20260830163920 72 185 4.0 9.0 0.00 0.04 0.00 69 1010.3
20260830163412 72 197 4.0 9.0 0.00 0.06 0.00 68 1010.3
20260830162901 72 195 4.0 8.0 0.00 0.06 0.00 68 1010.4
20260830162351 72 232 5.0 9.0 0.00 0.06 0.00 67 1010.5
20260830161833 72 199 4.0 9.0 0.00 0.07 0.00 67 1010.5
20260830161328 72 212 4.0 11.0 0.00 0.07 0.00 66 1010.5
20260830160824 73 187 5.0 13.0 0.00 0.08 0.00 66 1010.5
20260830160418 73 207 6.0 13.0 0.00 0.09 0.00 64 1010.5
20260830155908 73 208 5.0 12.0 0.00 0.09 0.00 64 1010.6
20260830155400 73 226 5.0 13.0 0.00 0.09 0.00 66 1010.6
20260830154852 73 174 7.0 13.0 0.00 0.10 0.00 65 1010.5
20260830154345 73 166 6.0 12.0 0.00 0.10 0.00 65 1010.7
20260830153835 73 233 5.0 13.0 0.00 0.10 0.00 65 1010.7
20260830153322 73 188 6.0 13.0 0.00 0.10 0.00 66 1010.6
20260830152917 73 195 5.0 12.0 0.00 0.10 0.00 66 1010.6
20260830152407 73 207 5.0 14.0 0.00 0.10 0.00 67 1010.6
20260830151858 73 215 5.0 14.0 0.00 0.10 0.00 68 1010.6
20260830151350 72 193 5.0 12.0 0.00 0.10 0.00 69 1010.7
20260830150842 73 192 6.0 12.0 0.00 0.10 0.00 67 1010.7
20260830150334 73 192 6.0 12.0 0.00 0.10 0.00 67 1010.7
20260830145828 73 164 6.0 12.0 0.00 0.10 0.00 67 1010.7
20260830145320 73 222 5.0 12.0 0.00 0.10 0.00 67 1010.7